When you browse on this site, cookies collect data to enhance your experience and personalize the content and advertising you see.
Visit our Privacy Policy to learn more. By continuing to use the site, you agree to this use of cookies and data.
  • In Sweden
  • List of Countries
  • For 7 days
  • Water Temperature
  • Weather Map
  • Weather Widgets
  • user-avatar
    Login

    Hourly Weather Umea

    Today, 27 February, Thursday

    Time Temperature Precipitation Wind Pressure Humidity
    00:00 -10°C° 0 mm 2 mps 748 mmHg 75%
    01:00 -12°C° 0 mm 2 mps 748 mmHg 74%
    02:00 -12°C° 0 mm 2 mps 748 mmHg 73%
    03:00 -12°C° 0 mm 2 mps 748 mmHg 71%
    04:00 -12°C° 0 mm 2 mps 748 mmHg 70%
    05:00 -11°C° 0 mm 1 mps 748 mmHg 69%
    06:00 -11°C° 0 mm 1 mps 748 mmHg 68%
    07:00 -11°C° 0 mm 1 mps 748 mmHg 67%
    08:00 -9°C° 0 mm 1 mps 748 mmHg 67%
    09:00 -7°C° 0 mm 1 mps 749 mmHg 67%
    10:00 -4°C° 0 mm 1 mps 749 mmHg 67%
    11:00 -3°C° 0 mm 1 mps 749 mmHg 67%
    12:00 -2°C° 0 mm 1 mps 749 mmHg 67%
    13:00 -1°C° 0 mm 1 mps 748 mmHg 68%
    14:00 -2°C° 0 mm 1 mps 748 mmHg 72%
    15:00 -3°C° 0 mm 1 mps 748 mmHg 76%
    16:00 -4°C° 0 mm 1 mps 748 mmHg 80%
    17:00 -6°C° 0 mm 1 mps 748 mmHg 78%
    18:00 -7°C° 0 mm 1 mps 748 mmHg 77%
    19:00 -8°C° 0 mm 1 mps 748 mmHg 76%
    20:00 -8°C° 0 mm 1 mps 748 mmHg 75%
    21:00 -8°C° 0 mm 1 mps 748 mmHg 74%
    22:00 -9°C° 0 mm 2 mps 748 mmHg 73%
    23:00 -8°C° 0 mm 1 mps 749 mmHg 74%

    Tomorrow, 28 February, Friday

    Time Temperature Precipitation Wind Pressure Humidity
    00:00 -9°C° 0 mm 1 mps 749 mmHg 74%
    01:00 -9°C° 0 mm 1 mps 749 mmHg 74%
    02:00 -9°C° 0 mm 1 mps 749 mmHg 75%
    03:00 -9°C° 0 mm 1 mps 749 mmHg 75%
    04:00 -9°C° 0 mm 1 mps 749 mmHg 76%
    05:00 -9°C° 0 mm 1 mps 749 mmHg 76%
    06:00 -9°C° 0 mm 1 mps 749 mmHg 77%
    07:00 -9°C° 0 mm 1 mps 749 mmHg 78%
    08:00 -8°C° 0 mm 1 mps 749 mmHg 77%
    09:00 -6°C° 0 mm 1 mps 749 mmHg 77%
    10:00 -3°C° 0 mm 1 mps 749 mmHg 77%
    11:00 -2°C° 0 mm 1 mps 749 mmHg 75%
    12:00 -2°C° 0 mm 1 mps 749 mmHg 74%
    13:00 -1°C° 0 mm 1 mps 749 mmHg 72%
    14:00 -2°C° 0 mm 1 mps 749 mmHg 75%
    15:00 -3°C° 0 mm 1 mps 749 mmHg 78%
    16:00 -4°C° 0 mm 1 mps 749 mmHg 82%
    17:00 -6°C° 0 mm 1 mps 749 mmHg 82%
    18:00 -7°C° 0 mm 1 mps 749 mmHg 82%
    19:00 -8°C° 0 mm 1 mps 749 mmHg 81%
    20:00 -8°C° 0 mm 1 mps 749 mmHg 82%
    21:00 -8°C° 0 mm 1 mps 749 mmHg 83%
    22:00 -8°C° 0 mm 1 mps 749 mmHg 83%
    23:00 -9°C° 0 mm 1 mps 749 mmHg 84%

    Day after tomorrow, 29 February, Saturday

    Time Temperature Precipitation Wind Pressure Humidity
    00:00 -9°C° 0 mm 1 mps 749 mmHg 84%
    01:00 -9°C° 0 mm 1 mps 748 mmHg 84%
    02:00 -9°C° 0 mm 1 mps 748 mmHg 85%
    03:00 -10°C° 0 mm 2 mps 748 mmHg 85%
    04:00 -9°C° 0 mm 2 mps 748 mmHg 85%
    05:00 -9°C° 0 mm 2 mps 748 mmHg 86%
    06:00 -9°C° 0 mm 3 mps 747 mmHg 87%
    07:00 -10°C° 0 mm 4 mps 747 mmHg 88%
    08:00 -8°C° 0 mm 4 mps 747 mmHg 86%
    09:00 -6°C° 0 mm 5 mps 746 mmHg 84%
    10:00 -4°C° 0 mm 6 mps 746 mmHg 82%
    11:00 -3°C° 0 mm 6 mps 746 mmHg 83%
    12:00 -3°C° 0 mm 6 mps 745 mmHg 84%
    13:00 -3°C° 0 mm 7 mps 745 mmHg 84%
    14:00 -3°C° 0 mm 7 mps 744 mmHg 85%
    15:00 -3°C° 0 mm 7 mps 744 mmHg 87%
    16:00 -4°C° 0 mm 8 mps 743 mmHg 88%
    17:00 -3°C° 0 mm 7 mps 743 mmHg 89%
    18:00 -3°C° 0 mm 7 mps 743 mmHg 90%
    19:00 -3°C° 0 mm 7 mps 742 mmHg 91%
    20:00 -3°C° 0 mm 7 mps 742 mmHg 92%
    21:00 -4°C° 0 mm 8 mps 741 mmHg 93%
    22:00 -4°C° 0 mm 8 mps 741 mmHg 94%
    23:00 -4°C° 0.3 mm 8 mps 740 mmHg 95%

    1 March, Sunday

    Time Temperature Precipitation Wind Pressure Humidity
    00:00 -4°C° 0.3 mm 8 mps 739 mmHg 96%
    01:00 -4°C° 0.3 mm 8 mps 739 mmHg 97%
    02:00 -4°C° 1.1 mm 8 mps 738 mmHg 97%
    03:00 -4°C° 1.1 mm 8 mps 737 mmHg 97%
    04:00 -2°C° 1.1 mm 8 mps 736 mmHg 97%
    05:00 -2°C° 0.9 mm 7 mps 735 mmHg 97%
    06:00 -2°C° 0.9 mm 7 mps 735 mmHg 97%
    07:00 -2°C° 0.9 mm 6 mps 734 mmHg 98%
    08:00 -2°C° 0.9 mm 6 mps 733 mmHg 98%
    09:00 -2°C° 0.9 mm 6 mps 732 mmHg 98%
    10:00 -1°C° 0.9 mm 6 mps 731 mmHg 99%
    11:00 -1°C° 1 mm 6 mps 731 mmHg 99%
    12:00 0°C° 1 mm 5 mps 730 mmHg 99%
    13:00 0°C° 1 mm 5 mps 730 mmHg 99%
    14:00 -1°C° 0.9 mm 6 mps 730 mmHg 97%
    15:00 -1°C° 0.9 mm 8 mps 730 mmHg 94%
    16:00 -1°C° 0.9 mm 9 mps 730 mmHg 92%
    17:00 -1°C° 0 mm 8 mps 731 mmHg 90%
    18:00 -2°C° 0 mm 8 mps 731 mmHg 89%
    19:00 -2°C° 0 mm 7 mps 732 mmHg 88%
    20:00 -2°C° 0.1 mm 7 mps 732 mmHg 91%
    21:00 -2°C° 0.1 mm 6 mps 732 mmHg 94%
    22:00 -1°C° 0.1 mm 5 mps 733 mmHg 97%
    23:00 -2°C° 0.5 mm 5 mps 733 mmHg 98%

    2 March, Monday

    Time Temperature Precipitation Wind Pressure Humidity
    00:00 -2°C° 0.5 mm 5 mps 732 mmHg 98%
    01:00 -2°C° 0.5 mm 5 mps 732 mmHg 98%
    02:00 -3°C° 1 mm 4 mps 732 mmHg 98%
    03:00 -3°C° 1 mm 4 mps 732 mmHg 98%
    04:00 -4°C° 1 mm 3 mps 732 mmHg 98%
    05:00 -5°C° 0.6 mm 3 mps 733 mmHg 97%
    06:00 -6°C° 0.6 mm 3 mps 733 mmHg 96%
    07:00 -7°C° 0.6 mm 3 mps 734 mmHg 95%
    08:00 -6°C° 0.2 mm 3 mps 734 mmHg 94%
    09:00 -6°C° 0.2 mm 3 mps 735 mmHg 94%
    10:00 -6°C° 0.2 mm 3 mps 735 mmHg 93%
    11:00 -6°C° 0.2 mm 3 mps 736 mmHg 94%
    12:00 -5°C° 0.2 mm 4 mps 736 mmHg 94%
    13:00 -5°C° 0.2 mm 4 mps 737 mmHg 95%
    14:00 -5°C° 0.6 mm 4 mps 737 mmHg 95%
    15:00 -5°C° 0.6 mm 4 mps 737 mmHg 95%
    16:00 -7°C° 0.6 mm 4 mps 738 mmHg 95%
    17:00 -7°C° 0.7 mm 5 mps 738 mmHg 95%
    18:00 -7°C° 0.7 mm 5 mps 738 mmHg 95%
    19:00 -8°C° 0.7 mm 5 mps 739 mmHg 95%
    20:00 -9°C° 0.7 mm 6 mps 739 mmHg 94%
    21:00 -9°C° 0.7 mm 6 mps 740 mmHg 94%
    22:00 -9°C° 0.7 mm 6 mps 740 mmHg 94%
    23:00 -9°C° 0.5 mm 7 mps 741 mmHg 94%

    3 March, Tuesday

    Time Temperature Precipitation Wind Pressure Humidity
    00:00 -9°C° 0.5 mm 7 mps 741 mmHg 94%
    01:00 -9°C° 0.5 mm 7 mps 742 mmHg 94%
    02:00 -9°C° 0.5 mm 7 mps 742 mmHg 94%
    03:00 -10°C° 0.5 mm 8 mps 742 mmHg 94%
    04:00 -10°C° 0.5 mm 8 mps 743 mmHg 94%
    05:00 -10°C° 0.4 mm 8 mps 743 mmHg 93%
    06:00 -10°C° 0.4 mm 8 mps 744 mmHg 93%
    07:00 -10°C° 0.4 mm 8 mps 744 mmHg 93%
    08:00 -8°C° 0.3 mm 7 mps 745 mmHg 93%
    09:00 -7°C° 0.3 mm 7 mps 745 mmHg 94%
    10:00 -7°C° 0.3 mm 7 mps 745 mmHg 94%
    11:00 -5°C° 0.5 mm 6 mps 746 mmHg 95%
    12:00 -4°C° 0.5 mm 6 mps 746 mmHg 95%
    13:00 -4°C° 0.5 mm 6 mps 747 mmHg 96%
    14:00 -4°C° 0.7 mm 5 mps 747 mmHg 97%
    15:00 -2°C° 0.7 mm 5 mps 747 mmHg 97%
    16:00 -2°C° 0.7 mm 5 mps 747 mmHg 97%
    17:00 -2°C° 0.6 mm 5 mps 747 mmHg 98%
    18:00 -2°C° 0.6 mm 5 mps 747 mmHg 98%
    19:00 -1°C° 0.6 mm 5 mps 747 mmHg 98%
    20:00 -1°C° 0.7 mm 5 mps 748 mmHg 98%
    21:00 -1°C° 0.7 mm 5 mps 748 mmHg 98%
    22:00 -1°C° 0.7 mm 5 mps 748 mmHg 98%
    23:00 -1°C° 0.3 mm 5 mps 748 mmHg 97%
    Show more